铱星星座 175星 (IRIDIUM 175)

导读 | 豆包AI

IRIDIUM 175是美国铱星通信公司运营的新一代低轨通信卫星,隶属于Iridium NEXT铱星星座,于2019年1月11日发射升空。该卫星运行在近地极地轨道,是全球覆盖的66星星座组网卫星之一,主要为全球提供全天候语音与数据通信服务,广泛支撑航空、航海、政府公务以及偏远地区应急通信,具备抗干扰特性与高可靠性,目前仍在轨稳定运行。

基本信息
目录编号:
43928
目录名称:
IRIDIUM 175
国际标识:
2019-002G
轨道中心:
EARTH
卫星名称:
铱星星座 175星
卫星全名:
铱星星座 175星 (IRIDIUM 175)
卫星状态:
在轨 (已飞行2640 天)
发射日期:
2019-01-11 UTC
国别 :
美国 (US)
星等 :
--
轨道信息
数据来源 国际轨道数据 AOE轨道数据
星历时间 2026-04-04T00:36:43+0800
12小时前
查看轨道信息
2026-04-03T22:00:00+0800
15小时前
查看轨道信息
半长轴 7124.822km 7124.823km
偏心率 0.0005283 0.0005132
轨道倾角 86.452° 86.454°
近地点辐角 100.809° 100.078°
升交点赤经 321.681° 321.725°
平近点角 259.371° 54.876°
近地点 742.92km 743.029km
远地点 750.45km 750.343km
周期 99.752分钟 99.752分钟
每日圈数 14.435831 14.435829
详细信息
平衡模式:
三轴稳定
覆盖范围:
全球
运营商:
铱星通信公司
运营商所在国:
美国
制造商(研发单位):
阿莱尼亚宇航公司
制造商所在国:
意大利
使用方式:
暂无
卫星简介
铱星(Iridium)是由共66个运作中的通信卫星组成的卫星通信系统。这个系统原本规划77个通信卫星,所以用原子序数为77的铱元素来命名。铱卫星允许人们使用手持型电子设备进行全球性的语音及数据通讯。该卫星仍在工作。
2D轨道图
3D轨道图
轨道高度分析图
轨道倾角分析图
轨道综合分析图
查看轨道综合分析图